Regional Weather Roundup
Issued by NWS Green Bay, WI

Home | Current Version | Previous Version | Text Only | Print | Product List | Glossary On
Versions: 1 2 3 4 5 6 7 8 9 10 11 12 13 14 15 16 17 18 19 20 21 22 23 24 25 26 27 28 29 30 31 32 33 34 35 36 37 38 39 40 41 42 43 44 45 46 47 48 49 50
000
ASUS43 KGRB 271111
RWRGRB

NORTH-CENTRAL AND NORTHEAST WISCONSIN REGIONAL WEATHER ROUNDUP
NATIONAL WEATHER SERVICE GREEN BAY WI
600 AM CDT FRI MAY 27 2016

WIZ005-009-010>012-018-019-271200-
NORTH CENTRAL WISCONSIN

CITY           SKY/WX    TMP DP  RH WIND       PRES   REMARKS
IRONWOOD         N/A     50  50 100 CALM      29.85S VSB 3/4
MANITOWISH WTR NOT AVBL
ARBOR VITAE    MOCLDY    52  51  96 CALM      29.90S
EAGLE RIVER    FOG       51  51 100 CALM      29.91R VSB 1/2
LAND O LAKES   MOCLDY    51  51 100 CALM      29.91F
RHINELANDER    PTCLDY    53  52  96 CALM      29.92R FOG
PHILLIPS       CLOUDY    52  52 100 CALM      29.89R
ANTIGO         CLEAR     52  52  99 CALM      29.91S
TOMAHAWK       PTCLDY    50  49  97 CALM      29.91S
MERRILL        CLOUDY    50  50 100 CALM      29.91S
$$

WIZ013-073-271200-
NORTHEAST WISCONSIN

CITY           SKY/WX    TMP DP  RH WIND       PRES   REMARKS
IRON MOUNTAIN  FOG       55  54  96 CALM      29.89R VSB<1/4
MARINETTE      CLEAR     54  54 100 CALM      29.89S
OCONTO         CLEAR    N/A N/A N/A CALM      29.88S
$$

WIZ017-030-035>037-045-271200-
CENTRAL WISCONSIN

CITY           SKY/WX    TMP DP  RH WIND       PRES   REMARKS
MEDFORD        CLOUDY    55  55 100 CALM      29.90R
WAUSAU         CLOUDY    58  55  90 CALM      29.87F
MOSINEE        PTCLDY    57  57 100 CALM      29.89F
MARSHFIELD     CLOUDY    59  55  87 NE6       29.86F
WISC RAPIDS    MOCLDY    59  55  87 CALM      29.88S
STEVENS POINT  PTCLDY    52  52  99 CALM      29.88F
WAUPACA        PTCLDY    58  57  98 CALM      29.88S
SHAWANO        FOG       57  56  94 CALM      29.89R VSB 3/4
CLINTONVILLE   FOG       54  54 100 CALM      29.88S VSB 1/4
WAUTOMA        CLOUDY    57  56  96 CALM      29.87F
$$

WIZ038-039-048-051-271200-
FOX VALLEY

CITY           SKY/WX    TMP DP  RH WIND       PRES   REMARKS
NWS GREEN BAY  CLEAR     59  57  93 CALM      29.87F
APPLETON       MOCLDY    61  57  88 CALM      29.87S
OSHKOSH        PTCLDY    59  55  87 N3        29.87S
FOND DU LAC    MOCLDY    58  57  97 CALM      29.88S
$$

WIZ022-050-052-271200-
EAST CENTRAL WISCONSIN

CITY           SKY/WX    TMP DP  RH WIND       PRES   REMARKS
EPHRAIM        FAIR      62  57  81 S7        29.89R
STURGEON BAY   NOT AVBL
MANITOWOC      CLEAR     54  52  93 CALM      29.89S FOG
SHEBOYGAN      CLOUDY    58  56  93 CALM      29.88S FOG
$$

LMZ563-521-522-541>543-271200-
LAKESHORE

STATION/POSITION TIME  TEMP    WIND        PRES    VSBY  WAVE
                       AIR SEA DIR/SP/G                  HT/PER
                 (UTC) (F)     (DEG/KT/KT) (MB)    (MI)  (FT/S)
SHEBOYGAN LKSHOR 1100   65     340/  3/  3 1012.0F
KEWAUNEE LKSHORE 1000           40/  3/  4 1011.5R
ALGOMA MARINA    1017             CALM       N/A
NORTHPORT PIER   1000   51     150/  3/  6 1012.2S
N MID LAKE BUOY  1050   48 45  150/  6/  8 1012.4S         1/ 4
SISTER BAY LKSHO 1004   56        CALM       N/A
CHAMBERS ISLAND  1000   54        CALM     1012.2S
MENOMINEE LKSHOR 1000   56      20/  4/  5 1010.8F
$$




USA.gov is the U.S. government's official web portal to all federal, state and local government web resources and services.